Location: ?????????
(41.2286°N, 23.0068°E)
Time: 07:42:35
(UTC+00:00)

Cosmos 2292 Rocket - Pass Details

Date: 08 November 2025
Orbit: 369 x 1245 km, 83.0° (Epoch: 04 December)

Event Time Altitude Azimuth Distance (km) Brightness Sun altitude
Rises 03:33:16 0° 183° (S) 2,578 6.8 -18.0°
Reaches altitude 10° 03:35:09 10° 183° (S) 1,796 6.0 -17.6°
Maximum altitude 03:39:05 83° 95° (E) 647 3.6 -16.9°
Drops below altitude 10° 03:44:13 10° 9° (N) 2,330 6.5 -16.0°
Sets 03:46:55 0° 9° (N) 3,422 7.4 -15.4°
